Location: Borovka
(49.7741°N, 14.5280°E)
Time: 13:01:56
(UTC+00:00)

ESTCUBE 1 - Pass Details

Date: 21 March 2026
Orbit: 620 x 631 km, 97.7° (Epoch: 18 April)

Event Time Altitude Azimuth Distance (km) Brightness Sun altitude
Exits shadow 19:01:23 34° 102° (ESE) 1,042 ? -17.3°
Maximum altitude 19:02:27 40° 68° (ENE) 934 ? -17.5°
Drops below altitude 10° 19:06:33 10° 360° (N) 2,022 ? -18.1°
Sets 19:08:51 0° 353° (N) 2,936 ? -18.4°
